User: anonymous   Login
Location: Caltech
(34.1382°N, 118.1253°W)
Time: 13:29:09
(UTC-07:00)
Language:

OAO 2 Rocket - Orbit

View from above orbital plane
View from above orbital plane
View from above satellite
View from above satellite

Ground track
Ground track

The orbit data is extracted from the following two-line orbital elements,

1 03598U 68110B   14296.64156519  .00000821  00000-0  19449-3 0  7449
2 03598 034.9951 039.2916 0050113 301.0673 195.0496 14.53750319425562
Epoch (UTC): 23 October 2014 15:23:51
Eccentricity: 0.0050113
inclination: 34.9951°
perigee height: 678 km
apogee height: 749 km
right ascension of ascending node: 39.2916°
argument of perigee: 301.0673°
revolutions per day: 14.53750319
mean anomaly at epoch: 195.0496°
orbit number at epoch: 42556

The dashed part of the orbit path shows where the satellite is in the earth's shadow,  

DLR